TimePST,TemperatureF,Dew PointF,Humidity,Sea Level PressureIn,VisibilityMPH,Wind Direction,Wind SpeedMPH,Gust SpeedMPH,PrecipitationIn,Events,Conditions,WindDirDegrees,DateUTC
12:53 AM,53.1,48.9,86,29.79,10.0,SSE,10.4,-,N/A,,Overcast,160,2012-12-22 08:53:00
1:40 AM,55.4,48.2,77,29.78,10.0,South,23.0,28.8,0.00,,Overcast,180,2012-12-22 09:40:00
1:53 AM,54.0,46.9,77,29.79,5.0,SW,24.2,35.7,0.01,Rain,Rain,230,2012-12-22 09:53:00
2:15 AM,51.8,46.4,82,29.81,6.0,SSW,5.8,19.6,N/A,Rain-Thunderstorm,Rain,200,2012-12-22 10:15:00
2:33 AM,50.0,46.4,87,29.81,5.0,South,10.4,-,N/A,Rain,Rain,190,2012-12-22 10:33:00
2:53 AM,48.9,46.9,93,29.80,7.0,SSE,9.2,-,N/A,Rain,Light Rain,150,2012-12-22 10:53:00
3:17 AM,48.2,46.4,93,29.82,7.0,SE,6.9,-,0.01,Rain,Light Rain,140,2012-12-22 11:17:00
3:36 AM,48.2,46.4,93,29.81,6.0,SE,10.4,-,0.02,Rain,Light Rain,130,2012-12-22 11:36:00
3:44 AM,48.2,46.4,93,29.81,6.0,SE,9.2,-,0.02,Rain,Light Rain,130,2012-12-22 11:44:00
3:53 AM,48.9,46.9,93,29.80,8.0,SSE,6.9,-,0.03,Rain,Light Rain,150,2012-12-22 11:53:00
3:59 AM,48.2,46.4,93,29.82,8.0,SE,5.8,-,0.00,Rain,Light Rain,140,2012-12-22 11:59:00
4:14 AM,48.2,46.4,93,29.81,5.0,Calm,Calm,-,0.01,Rain,Rain,0,2012-12-22 12:14:00
4:26 AM,48.2,46.4,93,29.81,6.0,Calm,Calm,-,0.01,Rain,Light Rain,0,2012-12-22 12:26:00
4:43 AM,48.2,46.4,93,29.79,7.0,SSE,11.5,-,0.02,Rain,Light Rain,150,2012-12-22 12:43:00
4:53 AM,48.9,46.9,93,29.78,6.0,SE,5.8,-,0.02,Rain,Light Rain,140,2012-12-22 12:53:00
5:10 AM,48.2,44.6,87,29.82,2.5,West,11.5,18.4,0.01,Rain,Heavy Rain,270,2012-12-22 13:10:00
5:39 AM,46.4,44.6,93,29.82,8.0,Calm,Calm,-,0.03,Rain,Light Rain,0,2012-12-22 13:39:00
5:53 AM,46.9,44.1,90,29.81,10.0,ENE,3.5,-,0.04,Rain,Light Rain,70,2012-12-22 13:53:00
6:46 AM,48.2,46.4,93,29.83,8.0,ESE,4.6,-,0.03,Rain,Light Rain,120,2012-12-22 14:46:00
6:53 AM,48.0,46.0,93,29.81,6.0,SE,4.6,-,0.04,Rain,Light Rain,130,2012-12-22 14:53:00
7:53 AM,48.0,45.0,89,29.84,8.0,Calm,Calm,-,0.03,,Mostly Cloudy,0,2012-12-22 15:53:00
8:53 AM,48.9,46.0,90,29.86,9.0,Calm,Calm,-,0.04,Rain,Light Rain,0,2012-12-22 16:53:00
9:53 AM,52.0,44.1,74,29.90,10.0,Calm,Calm,-,0.03,,Mostly Cloudy,0,2012-12-22 17:53:00
10:53 AM,53.1,45.0,74,29.90,9.0,SSW,8.1,-,0.03,,Mostly Cloudy,200,2012-12-22 18:53:00
11:53 AM,53.1,43.0,69,29.90,10.0,SSW,6.9,-,0.03,,Mostly Cloudy,200,2012-12-22 19:53:00
12:53 PM,53.1,41.0,64,29.89,10.0,WSW,9.2,-,0.03,,Mostly Cloudy,250,2012-12-22 20:53:00
1:53 PM,54.0,41.0,62,29.90,10.0,SW,11.5,-,0.03,,Mostly Cloudy,230,2012-12-22 21:53:00
2:53 PM,53.1,39.9,61,29.91,10.0,SSW,8.1,-,0.02,,Mostly Cloudy,200,2012-12-22 22:53:00
3:53 PM,52.0,42.1,69,29.92,9.0,Variable,5.8,-,0.03,,Scattered Clouds,0,2012-12-22 23:53:00
4:53 PM,51.1,41.0,68,29.93,8.0,Calm,Calm,-,0.02,,Mostly Cloudy,0,2012-12-23 00:53:00
5:53 PM,48.0,41.0,77,29.94,8.0,SE,3.5,-,0.02,,Mostly Cloudy,130,2012-12-23 01:53:00
6:53 PM,45.0,41.0,86,29.96,10.0,North,4.6,-,0.03,,Mostly Cloudy,360,2012-12-23 02:53:00
7:53 PM,45.0,42.1,90,29.99,10.0,NNE,4.6,-,0.02,,Mostly Cloudy,30,2012-12-23 03:53:00
8:53 PM,45.0,42.1,90,30.00,10.0,NW,3.5,-,0.02,,Mostly Cloudy,320,2012-12-23 04:53:00
9:53 PM,43.0,41.0,93,30.01,10.0,Calm,Calm,-,0.01,,Mostly Cloudy,0,2012-12-23 05:53:00
10:49 PM,44.6,42.8,93,30.03,10.0,Calm,Calm,-,0.02,,Overcast,0,2012-12-23 06:49:00
10:53 PM,44.1,43.0,96,30.02,10.0,WSW,3.5,-,0.02,,Overcast,250,2012-12-23 06:53:00
11:07 PM,44.6,42.8,93,30.04,10.0,Calm,Calm,-,N/A,,Overcast,0,2012-12-23 07:07:00
11:53 PM,44.1,42.1,93,30.02,8.0,Calm,Calm,-,0.01,,Mostly Cloudy,0,2012-12-23 07:53:00